FENGYUN1
1 25730U 99025A   06033.53813497  .00000210  00000-0  13794-3 0  6407
2 25730 098.6185 031.2271 0014425 161.0776 199.0930 14.11807504347013
OKEAN-0
1 25860U 99039A   06032.92677884  .00000085  00000-0  20299-4 0 06584
2 25860 097.7416 053.5098 0001086 116.0529 244.0790 14.73334921351839
NOAA-16
1 26536U 00055A   06033.32901266 -.00000108  00000-0 -33782-4 0  7337
2 26536 099.0504 358.4905 0010827 135.9537 224.2526 14.12310739276544
NOAA-17
1 27453U 02032A   06033.45197992  .00000256  00000-0  13097-3 0  7574
2 27453 098.6370 108.2071 0012620 106.5170 253.7402 14.23747969187603
NOAA-18
1 28654U 05018A   06033.47073298  .00000350  00000-0  21919-3 0  3448
2 28654 098.7753 339.7330 0013644 242.4779 117.5017 14.10927826 36389
HUBBLE
1 20580U 90037B   06033.62710490  .00000426  00000-0  20381-4 0  5373
2 20580 028.4651 207.0139 0004206 197.9472 162.0960 14.99957911664876
UARS
1 21701U 91063B   06033.28720107  .00004895  00000-0  10225-3 0  6782
2 21701 056.9810 313.1676 0103108 312.9644 046.2767 15.42040120788487
PO-34
1 25520U 98064B   06032.79428813  .00000667  00000-0  23439-4 0  3824
2 25520 028.4582 216.8410 0005429 201.5769 158.4589 15.16602026401472
ISS
1 25544U 98067A   06033.92501278  .00012329  00000-0  87171-4 0  2747
2 25544 051.6439 157.9454 0009122 227.1982 234.5101 15.74434970412007
OO-38
1 26063U 00004C   06032.75103660 -.00000057  00000-0  62697-6 0 05377
2 26063 100.1910 299.4211 0037028 128.2880 232.1639 14.35751653315249
NO-45
1 26932U 01043D   06033.19376194 -.00000072  00000-0  39873-5 0  2327
2 26932 067.0595 355.0698 0006618 289.4953 070.5440 14.29513752226675
UWE-1
1 28892U 05043C   06033.80876920  .00000183  00000-0  48638-4 0  3385
2 28892 098.1799 294.0992 0016550 228.8919 131.0849 14.59299865 14374
XI-V
1 28895U 05043F   06033.73642282  .00000195  00000-0  50971-4 0  3209
2 28895 098.1818 294.0616 0017041 229.0163 130.9565 14.59355862 14241
NCUBE2
1 28897U 05043H   06033.24794707  .00000180  00000-0  47782-4 0   237
2 28897 098.1787 293.5821 0016139 233.9305 126.0401 14.59508892  6440
